Content
SEND FEEDBACK

Daily
Averages
Monthly
Summary
Switzerland

GENEVA, SWITZERLAND


Home > Europe > Switzerland
Elevation: 1364 feet     Latitude: 46 15N     Longitude: 006 08E

WEATHER
 
SELECT A DAY
Number of Records: 317,120;   Date Range: 7/1/96 - 12/17/14
 
SHARE

PRINT THIS DATA

[ ← Previous Day ]
WEATHER ALMANAC - SEPTEMBER 1, 2013
[ Next Day → ]
[ °C ]   °F
Weather ElementAverageHighLow
Temperature65.1 °F75.2 °F (2:20 pm)53.6 °F (5:20 am)
Dewpoint52.9 °F57.2 °F (9:20 am)50 °F (3:20 pm)
Humidity65.1 %100 % (5:50 am)32 % (4:00 pm)
Barometer30.24 in30.30 in (10:20 pm)30.18 in (4:00 pm)
Wind Speed5.3 mph11.5 mph (1:00 pm)
Weather ElementAverage
Visibility7.8 mi
Wind DirectionE (88.6 °)

Weather ElementTotal
Precipitation---
Heating Degree Days0.6 (Base 65)
Growing Degree Days14.4 (Base 50)
Averaged from 63 records on September 1, 2013
WEATHER CONDITIONS BREAKOUT
WIND DIRECTION BREAKOUT
WEATHER BY HOUR - SEPTEMBER 1, 2013
[ °C ]   °F
Local TimeTemperatureDewpointHumidityBarometerVisibilityWind DirectionWind SpeedGust SpeedPrecipitationEventsConditions
12:20 AM62.6 °F55.4 °F77 %30.21 in6.2 miCalmPartly Cloudy
12:50 AM60.8 °F55.4 °F82 %30.21 inVariable2.3 mphClear
1:00 AM60.0 °F54.0 °F75 %30.22 inNorth (350°)3.5 mph
1:20 AM60.8 °F55.4 °F82 %30.24 inVariable3.5 mphClear
1:50 AM59.0 °F55.4 °F88 %30.24 inCalmClear
2:00 AM59.0 °F54.0 °F78 %30.23 in19.0 miSW (230°)2.3 mph
2:20 AM59.0 °F55.4 °F88 %30.24 inVariable1.2 mphClear
2:50 AM59.0 °F55.4 °F88 %30.24 inWSW (240°)2.3 mphClear
3:50 AM57.2 °F53.6 °F88 %30.24 inWNW (290°)2.3 mphClear
4:00 AM56.0 °F53.0 °F86 %30.23 inSW (220°)2.3 mph
4:20 AM55.4 °F53.6 °F94 %30.21 inVariable2.3 mphClear
4:50 AM55.4 °F53.6 °F94 %30.21 inCalmClear
5:20 AM53.6 °F51.8 °F94 %30.21 inCalmClear
5:50 AM53.6 °F53.6 °F100 %30.21 inCalmClear
6:20 AM53.6 °F53.6 °F100 %30.24 inVariable2.3 mphClear
6:50 AM53.6 °F53.6 °F100 %30.24 in6.2 miCalmPartly Cloudy
7:20 AM53.6 °F51.8 °F94 %30.24 in6.2 miCalmPartly Cloudy
7:50 AM55.4 °F53.6 °F94 %30.24 in6.2 miCalmPartly Cloudy
8:00 AM56.0 °F53.0 °F84 %30.26 in12.0 miSW (230°)2.3 mphScattered Clouds
8:20 AM59.0 °F55.4 °F88 %30.27 in6.2 miCalmPartly Cloudy
8:50 AM62.6 °F55.4 °F77 %30.27 in6.2 miVariable1.2 mphPartly Cloudy
9:00 AM62.0 °F54.0 °F69 %30.25 inESE (110°)1.2 mph
9:20 AM66.2 °F57.2 °F73 %30.27 in6.2 miCalmPartly Cloudy
9:50 AM68.0 °F57.2 °F68 %30.27 in6.2 miVariable1.2 mphPartly Cloudy
10:00 AM65.0 °F55.0 °F62 %30.24 inENE (60°)3.5 mph
10:20 AM66.2 °F55.4 °F68 %30.27 in6.2 miENE (60°)4.6 mphPartly Cloudy
10:50 AM69.8 °F57.2 °F64 %30.27 in6.2 miNNE (30°)8.1 mphPartly Cloudy
11:20 AM69.8 °F55.4 °F60 %30.27 in6.2 miNE (50°)8.1 mphPartly Cloudy
11:50 AM69.8 °F55.4 °F60 %30.27 in6.2 miNNE (30°)8.1 mphPartly Cloudy
12:00 PM69.0 °F53.0 °F47 %30.23 inENE (60°)10.4 mph
12:20 PM71.6 °F55.4 °F57 %30.27 in6.2 miNE (50°)8.1 mphPartly Cloudy
12:50 PM73.4 °F53.6 °F50 %30.24 in6.2 miNE (40°)9.2 mphScattered Clouds
1:00 PM72.0 °F54.0 °F42 %30.20 inNE (50°)11.5 mph
1:20 PM73.4 °F55.4 °F53 %30.24 in6.2 miNNE (30°)8.1 mphPartly Cloudy
1:50 PM73.4 °F53.6 °F50 %30.24 in6.2 miNE (40°)9.2 mphPartly Cloudy
2:00 PM73.0 °F53.0 °F38 %30.19 in22.0 miNE (40°)11.5 mphScattered Clouds
2:20 PM75.2 °F53.6 °F47 %30.24 in6.2 miNE (50°)10.4 mphScattered Clouds
2:50 PM73.4 °F53.6 °F50 %30.24 in6.2 miNE (40°)10.4 mphPartly Cloudy
3:00 PM74.0 °F52.0 °F35 %30.19 inNE (40°)10.4 mph
3:20 PM75.2 °F50.0 °F41 %30.24 in6.2 miNE (40°)10.4 mphPartly Cloudy
3:50 PM75.2 °F50.0 °F41 %30.24 in6.2 miNE (40°)11.5 mphPartly Cloudy
4:00 PM74.0 °F50.0 °F32 %30.18 inNNE (30°)10.4 mph
4:20 PM75.2 °F50.0 °F41 %30.24 in6.2 miNNE (30°)9.2 mphPartly Cloudy
4:50 PM75.2 °F50.0 °F41 %30.24 in6.2 miNE (50°)11.5 mphPartly Cloudy
5:20 PM73.4 °F50.0 °F44 %30.24 in6.2 miNNE (20°)5.8 mphScattered Clouds
5:50 PM73.4 °F50.0 °F44 %30.24 in6.2 miNorth (360°)4.6 mphScattered Clouds
6:00 PM73.0 °F50.0 °F34 %30.19 inNW (320°)6.9 mph
6:20 PM71.6 °F50.0 °F46 %30.24 in6.2 miNNW (330°)6.9 mphScattered Clouds
6:50 PM69.8 °F50.0 °F49 %30.24 in6.2 miNNW (340°)8.1 mphScattered Clouds
7:00 PM69.0 °F50.0 °F40 %30.21 inNorth (350°)8.1 mph
7:20 PM68.0 °F51.8 °F56 %30.24 in6.2 miNorth (350°)6.9 mphScattered Clouds
7:50 PM66.2 °F51.8 °F60 %30.24 in6.2 miNorth (360°)5.8 mphScattered Clouds
8:00 PM66.0 °F50.0 °F46 %30.22 in25.0 miNorth (350°)4.6 mphScattered Clouds
8:20 PM66.2 °F51.8 °F60 %30.24 in6.2 miVariable4.6 mphPartly Cloudy
8:50 PM62.6 °F50.0 °F63 %30.27 in6.2 miNorth (10°)4.6 mphMostly Cloudy
9:00 PM62.0 °F50.0 °F56 %30.26 inNorth (10°)3.5 mph
9:20 PM62.6 °F50.0 °F63 %30.27 inNNE (30°)4.6 mphClear
9:50 PM64.4 °F51.8 °F64 %30.27 inENE (60°)10.4 mphClear
10:00 PM64.0 °F51.0 °F53 %30.27 inNE (50°)9.2 mph
10:20 PM64.4 °F51.8 °F64 %30.30 inNE (50°)10.4 mphClear
10:50 PM62.6 °F51.8 °F68 %30.30 inNE (50°)6.9 mphClear
11:20 PM60.8 °F51.8 °F72 %30.30 inNorth (10°)3.5 mphClear
11:50 PM57.2 °F50.0 °F77 %30.30 inVariable2.3 mphClear
Hourly data recorded from LSGG, located miles away from Geneva, Switzerland







STORIES FROM OUR PARTNERS